sat.trackr.live / text

‹ back to catalog

STARLINK-3233

NORAD 49746 · 2021-115Y

PAYLOAD ACTIVE UNKNOWN

§ Identity

Operator
Country
US
Launch date
2021-12-02
Launch site
AFETR
Launch vehicle
Mass (kg)
RCS (m²)

Purposes: comms

External: N2YO · Heavens-Above · Gunter

§ Orbital elements

Epoch: 2026-09-15T21:52:15.204576Z

Period
93.79 min
Inclination
53.1631°
Eccentricity
0.0001165
Mean motion
15.35393471 rev/d
Perigee alt
459.0 km
Apogee alt
460.5 km
Semi-major
6,837.9 km
B*
-1.7171e-5
RAAN
9.2034°
Arg perigee
67.6970°
Mean anomaly
292.4157°
Rev number
26,432

§ Raw data

STARLINK-32331 49746U 21115Y   26258.91128709 -.00000979  00000+0 -17171-4 0  99972 49746  53.1631   9.2034 0001165  67.6970 292.4157 15.35393471264325

JSON: /api/v1/satellites/49746 · /tle

For live sub-satellite position, see the globe view (requires WebGL).

§ Visibility from observer

Set your observer location to see the next 7 days of passes ≥ 10°. The values pass through the URL so the page stays shareable.

No JS? Fill the form by hand. The geolocation button needs JavaScript.